RH
87 98 98 81 78 84 91 95 97 97 86 69 52 43 37 34 32 34 32 32 28 23 22 20 21 22 22 24 26 23 22 21 21 24 23 25 24 25 25 25 25 24 23 24 26
93 87 90 89 84 84 83 91 97 98 93 81 62 50 39 38 35 37 38 32 26 25 24 23 22 22 22 25 25 26 23 22 26 27 26 25 25 25 23 23 23 22 21 21 21
89 87 90 87 74 80 74 89 96 98 99 85 77 61 47 38 35 42 36 28 25 25 23 22 22 22 23 25 25 29 26 28 28 28 27 26 24 24 21 22 21 19 19 19 18
82 85 92 90 81 76 76 85 93 90 95 94 84 66 54 44 43 39 33 27 25 23 22 22 23 23 24 24 26 25 27 27 25 26 25 22 20 19 19 16 15 15 15 15 16
86 84 85 87 82 76 66 76 89 86 93 92 79 68 62 54 48 40 34 30 27 25 24 23 24 23 23 24 23 23 23 23 22 21 21 21 18 18 16 15 14 13 14 13 13
89 84 89 86 75 74 58 71 95 98 94 93 84 79 71 63 51 43 37 32 28 25 23 22 22 22 23 25 22 24 24 23 20 20 22 21 18 20 15 15 16 15 15 16 15
91 84 88 76 63 65 67 67 89 92 90 92 84 78 73 65 50 43 36 31 28 26 23 23 22 23 23 25 25 25 23 21 22 23 23 26 24 23 19 17 16 15 15 15 14
75 72 65 58 67 65 75 73 95 90 92 83 79 73 67 59 49 43 39 36 34 30 29 27 25 26 27 28 27 27 27 23 23 27 28 27 20 18 17 19 20 20 20 20 18
50 55 60 65 71 80 80 92 94 88 84 80 74 67 66 54 46 41 41 42 41 40 38 35 32 33 33 32 33 31 28 28 26 27 27 26 22 21 25 27 26 25 25 24 23
82 84 79 73 91 97 94 97 93 85 78 74 68 63 60 53 47 47 47 45 42 40 39 38 37 37 35 35 29 32 31 29 26 26 30 32 30 31 35 35 32 30 30 30 32
93 96 89 95 97 91 93 86 82 76 73 65 62 56 52 51 49 47 45 45 38 34 32 31 35 35 32 31 32 35 34 33 33 37 42 42 41 41 42 41 45 47 46 43 40
90 95 97 97 96 90 81 77 77 70 64 61 58 56 54 49 47 43 36 34 33 32 31 31 38 35 38 42 44 52 56 50 46 49 53 50 47 47 47 53 58 63 63 61 58
85 90 92 94 94 89 80 76 71 66 66 63 59 56 51 44 39 36 37 39 38 39 41 44 41 46 50 55 58 57 58 60 66 63 60 59 51 52 54 64 68 71 69 72 70
82 83 81 78 80 77 74 68 61 57 60 56 52 44 41 39 39 39 41 42 44 46 47 48 50 53 59 63 61 61 62 68 71 72 68 63 64 56 62 69 76 84 79 71 67
73 72 68 62 61 62 60 56 50 46 57 48 47 41 42 43 41 42 45 48 50 50 54 55 55 62 66 64 66 68 71 74 76 80 81 69 85 67 74 78 80 84 85 83 83
60 62 53 51 51 48 47 45 40 51 59 49 43 44 42 42 46 48 51 52 55 58 57 61 65 67 67 69 72 72 75 75 78 85 86 77 86 75 87 87 84 89 94 92 92
47 44 39 38 40 41 41 40 51 52 42 46 45 42 43 44 47 52 59 59 64 72 70 62 64 66 65 68 72 79 84 81 82 88 80 83 91 91 92 90 91 92 95 98 98
38 35 32 34 36 35 37 39 51 44 46 44 45 45 45 46 49 57 60 60 62 61 61 63 61 56 62 63 72 78 84 88 86 81 79 82 90 94 93 93 93 94 98 98 98
33 32 31 31 32 35 36 48 50 45 44 44 45 43 42 45 53 55 54 54 51 55 57 56 55 49 57 61 69 73 78 81 90 77 84 79 85 94 94 95 96 97 97 95 88
27 29 29 29 31 32 35 40 41 41 41 40 39 42 45 47 48 48 46 44 47 49 52 54 60 47 51 59 64 71 74 80 85 84 82 70 81 87 92 93 95 91 79 75 64
25 28 30 29 30 32 43 40 41 40 41 42 42 43 43 44 44 43 42 40 43 46 48 50 53 43 47 53 54 61 63 70 75 76 75 70 70 67 66 69 75 68 58 56 50
22 27 23 23 28 32 37 38 38 40 42 42 42 41 41 42 43 40 37 35 39 41 43 43 45 45 33 35 39 42 44 54 70 68 64 64 59 45 46 46 49 57 48 36 41
19 21 21 20 27 27 31 33 35 35 35 35 37 37 38 38 37 36 34 33 36 37 38 40 43 43 26 28 32 34 36 37 44 56 56 49 37 37 36 38 37 37 34 34 27
19 23 20 19 20 21 24 27 29 30 32 33 32 32 32 30 31 32 30 30 33 35 38 39 39 36 32 25 28 30 33 34 38 50 39 33 25 28 30 31 31 29 28 25 26
17 20 23 24 20 20 20 21 24 24 26 27 28 28 27 26 26 27 28 28 28 34 38 39 39 35 32 30 30 30 28 28 38 31 37 26 28 24 25 27 27 25 24 24 23
20 20 20 22 23 22 22 22 19 19 19 22 24 23 25 24 20 22 25 25 24 31 34 35 37 35 33 25 27 32 26 27 27 27 26 26 25 20 21 24 26 24 24 23 22
22 21 20 23 22 22 21 20 19 20 18 19 19 21 22 18 19 23 27 28 29 31 32 35 36 35 30 25 26 20 15 19 20 19 20 24 18 19 20 21 22 22 22 21 21